• In Czech Republic
  • List of Countries
  • For 7 days
  • Water Temperature
  • Satellite Maps
  • Weather Map
  • Weather Widgets
  • user-avatar
    Login

    Hourly Weather Terlizzi

    Today, 18 July, Wednesday

    Time Temperature Precipitation Wind Pressure Humidity
    00:00 +23°C° 0 mm 5 mps 742 mmHg 72%
    01:00 +23°C° 0 mm 5 mps 742 mmHg 74%
    02:00 +22°C° 0 mm 5 mps 742 mmHg 75%
    03:00 +22°C° 0 mm 5 mps 742 mmHg 75%
    04:00 +22°C° 0 mm 6 mps 742 mmHg 76%
    05:00 +23°C° 0 mm 6 mps 742 mmHg 71%
    06:00 +24°C° 0 mm 6 mps 742 mmHg 66%
    07:00 +26°C° 0 mm 6 mps 743 mmHg 61%
    08:00 +28°C° 0 mm 6 mps 743 mmHg 54%
    09:00 +29°C° 0 mm 6 mps 743 mmHg 47%
    10:00 +30°C° 0 mm 6 mps 743 mmHg 41%
    11:00 +32°C° 0 mm 6 mps 743 mmHg 37%
    12:00 +33°C° 0 mm 6 mps 743 mmHg 34%
    13:00 +34°C° 0 mm 6 mps 743 mmHg 31%
    14:00 +34°C° 0 mm 6 mps 743 mmHg 30%
    15:00 +34°C° 0 mm 6 mps 743 mmHg 29%
    16:00 +33°C° 0 mm 6 mps 743 mmHg 28%
    17:00 +32°C° 0 mm 6 mps 743 mmHg 30%
    18:00 +30°C° 0 mm 5 mps 743 mmHg 32%
    19:00 +29°C° 0 mm 4 mps 743 mmHg 34%
    20:00 +28°C° 0 mm 4 mps 743 mmHg 35%
    21:00 +27°C° 0 mm 4 mps 743 mmHg 37%
    22:00 +26°C° 0 mm 3 mps 743 mmHg 39%
    23:00 +26°C° 0 mm 3 mps 743 mmHg 37%

    Tomorrow, 19 July, Thursday

    Time Temperature Precipitation Wind Pressure Humidity
    00:00 +26°C° 0 mm 3 mps 743 mmHg 36%
    01:00 +25°C° 0 mm 3 mps 743 mmHg 35%
    02:00 +25°C° 0 mm 3 mps 743 mmHg 35%
    03:00 +25°C° 0 mm 3 mps 743 mmHg 34%
    04:00 +25°C° 0 mm 3 mps 743 mmHg 34%
    05:00 +26°C° 0 mm 3 mps 743 mmHg 34%
    06:00 +27°C° 0 mm 3 mps 743 mmHg 34%
    07:00 +29°C° 0 mm 3 mps 743 mmHg 34%
    08:00 +30°C° 0 mm 3 mps 743 mmHg 32%
    09:00 +33°C° 0 mm 3 mps 743 mmHg 29%
    10:00 +34°C° 0 mm 3 mps 743 mmHg 27%
    11:00 +35°C° 0 mm 4 mps 743 mmHg 26%
    12:00 +36°C° 0 mm 4 mps 743 mmHg 25%
    13:00 +36°C° 0 mm 4 mps 743 mmHg 24%
    14:00 +36°C° 0 mm 4 mps 743 mmHg 25%
    15:00 +35°C° 0 mm 4 mps 743 mmHg 27%
    16:00 +35°C° 0 mm 4 mps 743 mmHg 28%
    17:00 +33°C° 0 mm 4 mps 743 mmHg 31%
    18:00 +31°C° 0 mm 3 mps 743 mmHg 33%
    19:00 +30°C° 0 mm 3 mps 743 mmHg 36%
    20:00 +29°C° 0 mm 3 mps 743 mmHg 37%
    21:00 +28°C° 0 mm 2 mps 743 mmHg 39%
    22:00 +28°C° 0 mm 2 mps 743 mmHg 40%
    23:00 +27°C° 0 mm 2 mps 743 mmHg 42%

    Day after tomorrow, 20 July, Friday

    Time Temperature Precipitation Wind Pressure Humidity
    00:00 +27°C° 0 mm 3 mps 743 mmHg 43%
    01:00 +26°C° 0 mm 3 mps 743 mmHg 45%
    02:00 +26°C° 0 mm 3 mps 743 mmHg 47%
    03:00 +26°C° 0 mm 3 mps 743 mmHg 49%
    04:00 +25°C° 0 mm 3 mps 743 mmHg 51%
    05:00 +26°C° 0 mm 3 mps 743 mmHg 49%
    06:00 +27°C° 0 mm 3 mps 743 mmHg 47%
    07:00 +28°C° 0 mm 3 mps 743 mmHg 45%
    08:00 +30°C° 0 mm 3 mps 744 mmHg 41%
    09:00 +31°C° 0 mm 3 mps 744 mmHg 37%
    10:00 +34°C° 0 mm 3 mps 744 mmHg 33%
    11:00 +34°C° 0 mm 4 mps 744 mmHg 30%
    12:00 +35°C° 0 mm 4 mps 744 mmHg 28%
    13:00 +36°C° 0 mm 4 mps 744 mmHg 26%
    14:00 +36°C° 0 mm 4 mps 744 mmHg 26%
    15:00 +35°C° 0 mm 4 mps 743 mmHg 26%
    16:00 +35°C° 0 mm 4 mps 743 mmHg 26%
    17:00 +34°C° 0 mm 3 mps 743 mmHg 28%
    18:00 +33°C° 0 mm 3 mps 743 mmHg 30%
    19:00 +30°C° 0 mm 2 mps 743 mmHg 32%
    20:00 +30°C° 0 mm 2 mps 743 mmHg 33%
    21:00 +29°C° 0 mm 2 mps 744 mmHg 35%
    22:00 +28°C° 0 mm 1 mps 744 mmHg 36%
    23:00 +28°C° 0 mm 2 mps 744 mmHg 37%

    21 July, Saturday

    Time Temperature Precipitation Wind Pressure Humidity
    00:00 +27°C° 0 mm 2 mps 743 mmHg 38%
    01:00 +27°C° 0 mm 2 mps 743 mmHg 40%
    02:00 +27°C° 0 mm 2 mps 743 mmHg 42%
    03:00 +27°C° 0 mm 2 mps 743 mmHg 44%
    04:00 +26°C° 0 mm 2 mps 743 mmHg 46%
    05:00 +27°C° 0 mm 2 mps 743 mmHg 44%
    06:00 +29°C° 0 mm 2 mps 743 mmHg 42%
    07:00 +30°C° 0 mm 2 mps 743 mmHg 39%
    08:00 +32°C° 0 mm 2 mps 743 mmHg 34%
    09:00 +35°C° 0 mm 2 mps 743 mmHg 29%
    10:00 +37°C° 0 mm 2 mps 743 mmHg 24%
    11:00 +38°C° 0 mm 3 mps 743 mmHg 22%
    12:00 +39°C° 0 mm 3 mps 743 mmHg 21%
    13:00 +41°C° 0 mm 4 mps 743 mmHg 19%
    14:00 +41°C° 0 mm 5 mps 743 mmHg 20%
    15:00 +41°C° 0 mm 6 mps 742 mmHg 21%
    16:00 +40°C° 0 mm 6 mps 742 mmHg 21%
    17:00 +39°C° 0 mm 6 mps 742 mmHg 24%
    18:00 +37°C° 0 mm 5 mps 742 mmHg 27%
    19:00 +35°C° 0 mm 4 mps 742 mmHg 30%
    20:00 +34°C° 0 mm 4 mps 742 mmHg 33%
    21:00 +33°C° 0 mm 4 mps 742 mmHg 37%
    22:00 +30°C° 0 mm 4 mps 742 mmHg 40%
    23:00 +30°C° 0 mm 4 mps 741 mmHg 39%

    22 July, Sunday

    Time Temperature Precipitation Wind Pressure Humidity
    00:00 +29°C° 0 mm 4 mps 741 mmHg 38%
    01:00 +29°C° 0 mm 4 mps 741 mmHg 36%
    02:00 +28°C° 0 mm 3 mps 740 mmHg 36%
    03:00 +28°C° 0 mm 3 mps 740 mmHg 35%
    04:00 +27°C° 0 mm 2 mps 740 mmHg 34%
    05:00 +28°C° 0.1 mm 2 mps 740 mmHg 33%
    06:00 +29°C° 0.1 mm 2 mps 739 mmHg 31%
    07:00 +31°C° 0.1 mm 2 mps 739 mmHg 30%
    08:00 +32°C° 0.1 mm 2 mps 739 mmHg 27%
    09:00 +35°C° 0.1 mm 3 mps 739 mmHg 25%
    10:00 +37°C° 0.1 mm 3 mps 739 mmHg 22%
    11:00 +37°C° 0 mm 4 mps 738 mmHg 22%
    12:00 +38°C° 0 mm 4 mps 738 mmHg 22%
    13:00 +40°C° 0 mm 5 mps 737 mmHg 21%
    14:00 +39°C° 0 mm 5 mps 737 mmHg 25%
    15:00 +36°C° 0 mm 5 mps 737 mmHg 30%
    16:00 +35°C° 0 mm 6 mps 737 mmHg 34%
    17:00 +33°C° 0.6 mm 6 mps 737 mmHg 40%
    18:00 +30°C° 0.6 mm 6 mps 737 mmHg 47%
    19:00 +29°C° 0.6 mm 6 mps 737 mmHg 53%
    20:00 +28°C° 0.2 mm 6 mps 737 mmHg 57%
    21:00 +27°C° 0.2 mm 6 mps 738 mmHg 61%
    22:00 +26°C° 0.2 mm 6 mps 738 mmHg 64%
    23:00 +26°C° 0 mm 6 mps 738 mmHg 65%

    23 July, Monday

    Time Temperature Precipitation Wind Pressure Humidity
    00:00 +24°C° 0 mm 6 mps 737 mmHg 66%
    01:00 +24°C° 0 mm 6 mps 737 mmHg 67%
    02:00 +23°C° 0.3 mm 6 mps 737 mmHg 69%
    03:00 +23°C° 0.3 mm 6 mps 737 mmHg 71%
    04:00 +23°C° 0.3 mm 6 mps 737 mmHg 72%
    05:00 +24°C° 0.2 mm 6 mps 737 mmHg 69%
    06:00 +24°C° 0.2 mm 6 mps 738 mmHg 66%
    07:00 +26°C° 0.2 mm 7 mps 738 mmHg 63%
    08:00 +27°C° 0 mm 7 mps 738 mmHg 57%
    09:00 +28°C° 0 mm 7 mps 738 mmHg 51%
    10:00 +29°C° 0 mm 8 mps 738 mmHg 45%
    11:00 +29°C° 0 mm 8 mps 738 mmHg 44%
    12:00 +31°C° 0 mm 9 mps 738 mmHg 42%
    13:00 +31°C° 0 mm 9 mps 738 mmHg 41%
    14:00 +29°C° 0 mm 9 mps 738 mmHg 43%
    15:00 +29°C° 0 mm 9 mps 738 mmHg 44%
    16:00 +29°C° 0 mm 9 mps 738 mmHg 46%
    17:00 +28°C° 0 mm 9 mps 738 mmHg 50%
    18:00 +27°C° 0 mm 8 mps 738 mmHg 53%
    19:00 +26°C° 0 mm 8 mps 738 mmHg 56%
    20:00 +26°C° 0.1 mm 8 mps 738 mmHg 59%
    21:00 +24°C° 0.1 mm 8 mps 738 mmHg 62%
    22:00 +24°C° 0.1 mm 8 mps 738 mmHg 65%
    23:00 +23°C° 0.2 mm 7 mps 738 mmHg 67%
    Show more